CST,Max TemperatureF,Mean TemperatureF,Min TemperatureF,Max Dew PointF,MeanDew PointF,Min DewpointF,Max Humidity, Mean Humidity, Min Humidity, Max Sea Level PressureIn, Mean Sea Level PressureIn, Min Sea Level PressureIn, Max VisibilityMiles, Mean VisibilityMiles, Min VisibilityMiles, Max Wind SpeedMPH, Mean Wind SpeedMPH, Max Gust SpeedMPH,PrecipitationIn, CloudCover, Events, WindDirDegrees
2013-11-1,78,63,48,58,52,46,93,68,43,29.98,29.89,29.83,10,10,10,14,4,21,0.00,1,,113
2013-11-2,72,58,44,55,43,31,89,56,23,30.24,30.15,29.98,10,10,10,17,6,26,0.00,0,,340
2013-11-3,67,54,40,47,43,39,93,67,40,30.25,30.18,30.12,10,10,10,16,4,20,0.00,0,Rain,128
2013-11-4,73,61,49,59,53,44,86,74,61,30.15,30.09,30.05,10,10,10,13,8,17,0.00,5,,115
2013-11-5,76,70,64,68,64,58,93,83,73,30.09,30.05,29.99,10,10,8,16,9,22,0.00,8,,127
2013-11-6,76,62,48,70,62,40,97,86,74,30.29,30.11,30.01,10,10,5,17,8,25,0.01,7,Rain,323
2013-11-7,66,53,40,45,39,34,92,63,34,30.44,30.38,30.29,10,10,10,16,7,23,0.00,0,,5
2013-11-8,67,55,43,48,44,39,96,68,40,30.39,30.30,30.18,10,10,10,12,2,16,0.00,0,,92
2013-11-9,61,56,51,53,49,46,89,76,62,30.25,30.21,30.17,10,10,10,9,3,18,T,5,Rain,82
2013-11-10,73,60,46,50,47,45,93,67,41,30.32,30.27,30.22,10,10,10,7,3,9,0.00,1,,32
2013-11-11,74,59,43,54,48,42,100,72,44,30.28,30.23,30.17,10,9,2,7,1,9,0.00,0,,19
2013-11-12,65,53,40,54,45,29,100,83,65,30.61,30.43,30.25,10,9,5,21,7,26,T,3,Rain,10
2013-11-13,54,43,31,33,27,22,89,59,29,30.65,30.55,30.42,10,10,10,13,5,16,0.00,0,,33
2013-11-14,61,45,28,40,33,26,92,64,36,30.41,30.26,30.11,10,10,10,7,3,9,0.00,0,,123
2013-11-15,75,61,46,60,54,39,100,82,64,30.09,30.00,29.92,10,10,7,13,5,18,0.03,4,Rain,140
2013-11-16,79,67,54,72,62,54,100,87,74,29.96,29.90,29.80,10,4,0,16,8,21,0.01,5,Fog-Rain,142
2013-11-17,87,76,64,73,69,64,100,79,57,29.95,29.87,29.79,10,6,0,20,6,25,T,5,Fog-Rain,191
2013-11-18,79,68,57,68,51,38,100,62,23,30.15,30.05,29.94,10,7,0,16,8,22,0.00,2,Fog,50
2013-11-19,68,58,47,42,39,35,77,55,32,30.19,30.12,30.07,10,10,10,16,8,21,0.00,0,,73
2013-11-20,72,57,42,48,41,34,82,59,35,30.09,30.03,29.97,10,10,10,10,6,15,0.00,2,,116
2013-11-21,78,69,59,70,63,49,93,77,60,30.09,30.04,30.01,10,10,5,15,8,20,T,8,Rain,136
2013-11-22,72,58,44,70,56,42,93,90,86,30.32,30.19,30.07,10,6,2,14,8,21,0.96,8,Rain-Thunderstorm,317
2013-11-23,47,45,43,45,42,32,93,79,65,30.45,30.38,30.29,10,8,2,16,9,23,0.26,7,Rain,13
2013-11-24,48,43,37,35,28,23,92,65,38,30.49,30.41,30.32,10,10,6,16,7,24,0.07,5,Rain,34
2013-11-25,41,39,37,38,36,34,92,89,85,30.32,30.20,30.03,10,6,2,13,6,20,1.71,8,Rain,21
2013-11-26,42,39,36,40,37,33,92,89,85,30.27,30.11,30.04,10,6,2,14,6,21,0.71,7,Rain,322
2013-11-27,49,39,29,32,27,21,92,63,34,30.43,30.37,30.27,10,10,10,12,4,17,0.00,0,,340
2013-11-28,53,41,28,34,29,25,92,67,41,30.51,30.44,30.39,10,10,8,9,1,12,0.00,0,,131
2013-11-29,60,44,27,37,30,24,92,62,31,30.56,30.47,30.41,10,9,2,7,2,9,0.00,0,,106
2013-11-30,65,49,33,50,42,31,96,76,56,30.43,30.33,30.23,10,10,10,8,2,10,0.00,6,,141